Location: Chochol
(49.7771°N, 14.9780°E)
Time: 07:41:08
(UTC+00:00)

STARLINK-1244 - Visible Passes

Search period start: 11 August 2020 00:00
Search period end: 21 August 2020 00:00
Orbit: 549 x 550 km, 53.0° (Epoch: 11 August)

Date Brightness Start Highest point End Pass type
(mag) Time Alt. Az. Time Alt. Az. Time Alt. Az.
11 Aug 4.3 19:54:25 10° WNW 19:58:29 53° N 20:02:34 10° ENE visible
11 Aug 3.5 21:34:11 10° WNW 21:38:21 82° NNE 21:38:36 77° ENE visible
11 Aug 6.3 23:14:02 10° W 23:14:13 11° W 23:14:13 11° W visible
12 Aug 4.3 19:48:58 10° WNW 19:53:03 54° N 19:57:08 10° E visible
12 Aug 3.5 21:28:42 10° WNW 21:32:52 86° SSW 21:32:52 86° SSW visible
13 Aug 4.2 19:43:31 10° WNW 19:47:37 55° N 19:51:33 11° E visible
13 Aug 3.6 21:23:13 10° WNW 21:27:10 71° SW 21:27:10 71° SW visible
14 Aug 4.1 19:38:04 10° WNW 19:42:11 59° N 19:45:53 12° E visible
14 Aug 3.8 21:17:44 10° WNW 21:21:30 58° SW 21:21:30 58° SW visible
15 Aug 3.9 19:32:35 10° WNW 19:36:44 64° NNE 19:40:15 14° E visible
15 Aug 4.1 21:12:16 10° WNW 21:15:52 47° SW 21:15:52 47° SW visible
16 Aug 3.8 19:27:06 10° WNW 19:31:16 71° NNE 19:34:39 15° E visible
16 Aug 4.4 21:06:50 10° WNW 21:10:17 38° SW 21:10:17 38° SW visible
17 Aug 3.7 19:21:37 10° WNW 19:25:47 80° NNE 19:29:06 16° ESE visible
17 Aug 4.8 21:01:26 10° WNW 21:04:43 31° SW 21:04:43 31° SW visible
18 Aug 3.6 19:16:07 10° WNW 19:20:17 89° SSW 19:23:35 16° ESE visible
18 Aug 5.1 20:56:06 10° W 20:59:12 25° SW 20:59:12 25° SW visible
19 Aug 3.6 19:10:38 10° WNW 19:14:47 76° SSW 19:18:06 15° ESE visible
19 Aug 5.4 20:50:50 10° W 20:53:44 20° SW 20:53:44 20° SW visible
20 Aug 3.8 19:05:08 10° WNW 19:09:15 63° SSW 19:12:40 14° SE visible
20 Aug 5.7 20:45:45 10° W 20:48:11 15° SW 20:48:19 15° SW visible
